Weather History for Grayling, MI

Change the Weather History Date:

Wednesday, February 5, 2014

  Actual Average (KHTL) Record (KHTL)
Temperature  
Mean Temperature 11 °F 18 °F  
Max Temperature 15 °F 27 °F 50 °F (2005)
Min Temperature 7 °F 9 °F -44 °F (1918)
Degree Days  
Heating Degree Days 54 47  
Month to date heating degree days 235  
Since 1 July heating degree days 4847  
Moisture  
Dew Point 5 °F    
Average Humidity 72    
Maximum Humidity 82    
Minimum Humidity 57    
Precipitation  
Precipitation 0.00 in 0.03 in 0.80 in (1924)
Month to date precipitation 0.18  
Year to date precipitation 1.69  
Snow  
Snow 0.00 in 0.50 in 8.00 in (1924)
Month to date snowfall 2.5  
Since 1 July snowfall 44.6  
Snow Depth -    
Sea Level Pressure  
Sea Level Pressure 30.19 in    
Wind  
Wind Speed 9 mph (NNW)    
Max Wind Speed 16 mph    
Max Gust Speed 23 mph    
Visibility 10 miles    
Events Snow    
T = Trace of Precipitation, MM = Missing Value Source: NWS Daily Summary

Daily Weather History Graph

Daily Weather History Graph

Search for Another Location

Airport:

Trip Planner

Search our weather history database for the weather conditions in past years. The results will help you decide how hot, cold, wet, or windy it might be!

Date:

Astronomy

Feb. 05, 2014 Rise Set
Actual Time 7:53 AM EST 5:53 PM EST
Civil Twilight 7:22 AM EST 6:24 PM EST
Nautical Twilight 6:47 AM EST 6:58 PM EST
Astronomical Twilight 6:13 AM EST 7:32 PM EST
Moon 10:49 AM EST (2/5) 12:01 AM EST (2/5)
Length of Visible Light 11h 01m
Length of Day
10h 00m
Waxing Crescent, 39% of the Moon is Illuminated
Feb 5
Waxing Crescent
Feb 6
First Quarter
Feb 14
Full
Feb 22
Last Quarter
Mar 1
New

Hourly Weather History & Observations

Time (EST) Temp. Windchill Dew Point Humidity Pressure Visibility Wind Dir Wind Speed Gust Speed Precip Events Conditions
12:14 AM 15.4 °F 8.1 °F 10.9 °F 82% 30.23 in 10.0 mi NE 4.6 mph - N/A   Clear
12:35 AM 15.4 °F 4.6 °F 10.4 °F 80% 30.22 in 10.0 mi NE 8.1 mph - N/A   Clear
12:55 AM 15.4 °F 6.8 °F 10.9 °F 82% 30.22 in 10.0 mi NNE 5.8 mph - N/A   Clear
1:14 AM 15.4 °F 3.8 °F 10.2 °F 80% 30.21 in 10.0 mi NNE 9.2 mph - N/A   Scattered Clouds
1:35 AM 15.4 °F 3.8 °F 9.3 °F 77% 30.21 in 10.0 mi NNE 9.2 mph - N/A   Mostly Cloudy
1:55 AM 14.7 °F 2.9 °F 7.9 °F 74% 30.20 in 10.0 mi NNE 9.2 mph - N/A   Mostly Cloudy
2:14 AM 13.8 °F -0.5 °F 6.8 °F 74% 30.19 in 10.0 mi NNE 12.7 mph - N/A   Mostly Cloudy
2:35 AM 14.0 °F 0.5 °F 7.3 °F 75% 30.19 in 10.0 mi NNE 11.5 mph - N/A   Scattered Clouds
2:54 AM 13.8 °F 1.8 °F 6.6 °F 73% 30.19 in 10.0 mi NNE 9.2 mph - N/A   Clear
3:15 AM 13.1 °F 0.1 °F 5.4 °F 71% 30.19 in 10.0 mi NNE 10.4 mph - N/A   Clear
3:35 AM 13.1 °F 0.9 °F 5.4 °F 71% 30.19 in 10.0 mi North 9.2 mph - N/A   Clear
3:54 AM 13.1 °F 1.8 °F 5.0 °F 70% 30.18 in 10.0 mi North 8.1 mph - N/A   Clear
4:15 AM 13.1 °F 1.8 °F 4.5 °F 68% 30.17 in 10.0 mi NNE 8.1 mph - N/A   Clear
4:35 AM 12.9 °F 0.7 °F 4.6 °F 70% 30.15 in 10.0 mi NNE 9.2 mph - N/A   Mostly Cloudy
4:54 AM 12.9 °F -0.2 °F 5.0 °F 71% 30.14 in 10.0 mi NNE 10.4 mph - N/A   Overcast
5:15 AM 12.9 °F -1.6 °F 4.8 °F 70% 30.12 in 10.0 mi NNE 12.7 mph - N/A   Overcast
5:35 AM 12.9 °F -0.9 °F 5.0 °F 71% 30.12 in 10.0 mi NNE 11.5 mph - N/A   Overcast
5:54 AM 12.9 °F 0.7 °F 5.7 °F 73% 30.12 in 10.0 mi NNE 9.2 mph - N/A   Overcast
6:15 AM 12.9 °F -0.2 °F 6.3 °F 75% 30.11 in 10.0 mi North 10.4 mph - N/A   Overcast
6:34 AM 12.9 °F -0.9 °F 6.8 °F 77% 30.12 in 5.0 mi NNE 11.5 mph - N/A Snow Light Snow
6:55 AM 12.9 °F -0.9 °F 7.7 °F 80% 30.12 in 7.0 mi North 11.5 mph 16.1 mph N/A Snow Light Snow
7:15 AM 12.9 °F -0.2 °F 8.2 °F 82% 30.11 in 7.0 mi North 10.4 mph - N/A Snow Light Snow
7:35 AM 12.9 °F -1.6 °F 8.2 °F 82% 30.12 in 7.0 mi North 12.7 mph - N/A Snow Light Snow
7:55 AM 12.9 °F -0.2 °F 8.2 °F 82% 30.12 in 7.0 mi North 10.4 mph - N/A Snow Light Snow
8:14 AM 12.9 °F -0.2 °F 8.2 °F 82% 30.12 in 7.0 mi NNW 10.4 mph - N/A Snow Light Snow
8:35 AM 12.9 °F 0.7 °F 8.2 °F 82% 30.13 in 10.0 mi North 9.2 mph - N/A Snow Light Snow
8:55 AM 12.9 °F -0.9 °F 7.5 °F 79% 30.13 in 10.0 mi North 11.5 mph 20.7 mph N/A   Scattered Clouds
9:14 AM 12.9 °F -1.6 °F 7.7 °F 80% 30.14 in 10.0 mi North 12.7 mph 18.4 mph N/A Snow Light Snow
9:35 AM 12.9 °F -1.6 °F 7.2 °F 78% 30.13 in 10.0 mi North 12.7 mph 17.3 mph N/A   Overcast
9:54 AM 12.9 °F -1.6 °F 6.6 °F 76% 30.14 in 10.0 mi North 12.7 mph 19.6 mph N/A   Overcast
10:15 AM 12.9 °F -2.2 °F 5.9 °F 74% 30.14 in 10.0 mi North 13.8 mph 20.7 mph N/A   Overcast
10:35 AM 12.9 °F -2.2 °F 5.2 °F 71% 30.14 in 10.0 mi North 13.8 mph 20.7 mph N/A   Mostly Cloudy
10:54 AM 12.9 °F -2.2 °F 3.7 °F 67% 30.15 in 10.0 mi North 13.8 mph 20.7 mph N/A   Scattered Clouds
11:15 AM 13.5 °F -0.9 °F 3.2 °F 64% 30.15 in 10.0 mi North 12.7 mph - N/A   Mostly Cloudy
11:34 AM 14.7 °F 1.4 °F 4.3 °F 63% 30.15 in 10.0 mi North 11.5 mph 19.6 mph N/A   Overcast
11:55 AM 15.4 °F -0.1 °F 3.9 °F 60% 30.14 in 10.0 mi North 16.1 mph 23.0 mph N/A   Mostly Cloudy
12:15 PM 15.4 °F 1.6 °F 3.9 °F 60% 30.14 in 10.0 mi NNE 12.7 mph - N/A   Scattered Clouds
12:35 PM 15.4 °F 0.4 °F 4.5 °F 62% 30.13 in 10.0 mi NNW 15.0 mph 19.6 mph N/A   Mostly Cloudy
12:55 PM 15.4 °F 1.6 °F 3.9 °F 60% 30.13 in 10.0 mi North 12.7 mph - N/A   Mostly Cloudy
1:14 PM 15.4 °F 3.0 °F 3.2 °F 59% 30.12 in 10.0 mi NNW 10.4 mph - N/A   Scattered Clouds
1:35 PM 15.4 °F 2.3 °F 2.5 °F 57% 30.12 in 10.0 mi North 11.5 mph 16.1 mph N/A   Scattered Clouds
1:55 PM 15.4 °F 1.6 °F 3.0 °F 58% 30.13 in 10.0 mi North 12.7 mph 17.3 mph N/A   Scattered Clouds
2:14 PM 14.9 °F 2.3 °F 3.0 °F 59% 30.13 in 10.0 mi NNW 10.4 mph 17.3 mph N/A   Scattered Clouds
2:35 PM 15.1 °F 2.5 °F 4.1 °F 62% 30.14 in 10.0 mi North 10.4 mph - N/A   Scattered Clouds
2:54 PM 15.4 °F 4.6 °F 4.5 °F 62% 30.16 in 10.0 mi NNW 8.1 mph - N/A   Scattered Clouds
3:15 PM 14.4 °F 0.9 °F 3.2 °F 61% 30.16 in 10.0 mi NNW 11.5 mph - N/A   Scattered Clouds
3:35 PM 12.9 °F -2.8 °F 4.5 °F 69% 30.18 in 10.0 mi NW 15.0 mph - N/A   Mostly Cloudy
3:55 PM 12.9 °F -2.2 °F 3.9 °F 67% 30.19 in 10.0 mi NW 13.8 mph - N/A   Mostly Cloudy
4:15 PM 13.1 °F 0.9 °F 3.2 °F 65% 30.20 in 10.0 mi NW 9.2 mph - N/A   Overcast
4:34 PM 12.9 °F -0.2 °F 3.9 °F 67% 30.21 in 10.0 mi NW 10.4 mph - N/A   Overcast
4:55 PM 12.9 °F -0.2 °F 3.6 °F 66% 30.21 in 10.0 mi NW 10.4 mph 16.1 mph N/A   Overcast
5:14 PM 12.9 °F 0.7 °F 3.9 °F 67% 30.22 in 10.0 mi NNW 9.2 mph - N/A   Overcast
5:35 PM 12.2 °F -1.0 °F 3.7 °F 69% 30.23 in 10.0 mi NW 10.4 mph - N/A   Overcast
5:55 PM 10.4 °F -2.4 °F 2.3 °F 70% 30.24 in 10.0 mi NW 9.2 mph - N/A   Overcast
6:15 PM 9.1 °F -4.9 °F 1.9 °F 73% 30.24 in 10.0 mi NNW 10.4 mph - N/A   Mostly Cloudy
6:34 PM 8.2 °F -5.1 °F 1.4 °F 74% 30.25 in 10.0 mi NW 9.2 mph - N/A   Scattered Clouds
6:55 PM 8.1 °F -7.7 °F 1.6 °F 75% 30.25 in 10.0 mi NW 12.7 mph - N/A   Scattered Clouds
7:15 PM 8.8 °F -5.3 °F 2.3 °F 75% 30.25 in 10.0 mi NW 10.4 mph - N/A   Mostly Cloudy
7:35 PM 9.1 °F -3.0 °F 2.3 °F 74% 30.26 in 10.0 mi WNW 8.1 mph - N/A   Mostly Cloudy
7:55 PM 8.1 °F -2.0 °F 1.4 °F 74% 30.26 in 10.0 mi WNW 5.8 mph - N/A   Scattered Clouds
8:14 PM 8.4 °F -0.1 °F 1.4 °F 73% 30.27 in 10.0 mi NW 4.6 mph - N/A   Mostly Cloudy
8:35 PM 7.7 °F 1.0 °F 1.0 °F 74% 30.27 in 10.0 mi NW 3.5 mph - N/A   Mostly Cloudy
8:55 PM 7.7 °F -0.9 °F 1.2 °F 75% 30.27 in 10.0 mi NW 4.6 mph - N/A   Overcast
9:14 PM 7.7 °F -0.9 °F 1.2 °F 75% 30.27 in 10.0 mi NW 4.6 mph - N/A   Overcast
9:35 PM 7.7 °F 1.0 °F 1.0 °F 74% 30.27 in 10.0 mi NW 3.5 mph - N/A   Overcast
9:54 PM 7.7 °F - 0.9 °F 74% 30.28 in 10.0 mi Calm Calm - N/A   Overcast
10:15 PM 7.7 °F 1.0 °F 0.9 °F 74% 30.28 in 10.0 mi West 3.5 mph - N/A   Overcast
10:35 PM 7.7 °F -0.9 °F 1.2 °F 75% 30.28 in 10.0 mi NW 4.6 mph - N/A   Overcast
10:54 PM 7.7 °F -3.7 °F 1.4 °F 75% 30.28 in 10.0 mi WNW 6.9 mph - N/A   Overcast
11:15 PM 7.7 °F -2.4 °F 1.8 °F 77% 30.28 in 10.0 mi WNW 5.8 mph - N/A   Overcast
11:34 PM 7.7 °F -2.4 °F 2.1 °F 78% 30.28 in 10.0 mi WNW 5.8 mph - N/A   Overcast
11:55 PM 7.7 °F -0.9 °F 2.1 °F 78% 30.27 in 10.0 mi NW 4.6 mph - N/A   Overcast